SAS9223 LGSM-ENGM

Flight info

Callsign SAS9223
Flight time N/A
Altitude 40000
Route URNIL UL609 MES DCT KOROS DCT ATFIR DCT OVDOT DCT VERIG DCT KELEL DCT AMROR DCT SABAK L997 REGMA DCT LUNIP
Aircraft B737/M-SDE2E3FGHIRWXY/LB1

Departure

Time 2026-05-04 12:19
Airport Samos Airport (LGSM)

Arrival

Time N/A
Airport Oslo-Gardermoen International Airport (ENGM)
Time Latitude Longitude Altitude Speed Heading
2026-05-04 11:50 37.69063 26.91335 29 ft 0 kts
2026-05-04 12:04 37.69054 26.91334 29 ft 4 kts
2026-05-04 12:05 37.69027 26.91335 29 ft 4 kts 351°
2026-05-04 12:05 37.69002 26.91344 30 ft 4 kts 320°
2026-05-04 12:05 37.68993 26.91361 30 ft 0 kts 276°
2026-05-04 12:08 37.68993 26.91357 30 ft 3 kts 276°
2026-05-04 12:08 37.68998 26.91295 30 ft 8 kts 275°
2026-05-04 12:08 37.69003 26.91222 29 ft 8 kts 274°
2026-05-04 12:09 37.69007 26.91153 29 ft 8 kts 274°
2026-05-04 12:09 37.69008 26.91088 28 ft 2 kts 257°
2026-05-04 12:09 37.69006 26.91082 29 ft 0 kts 243°
2026-05-04 12:15 37.69001 26.91075 29 ft 6 kts 226°
2026-05-04 12:16 37.68936 26.91034 31 ft 13 kts 230°
2026-05-04 12:16 37.68935 26.90868 30 ft 25 kts 274°
2026-05-04 12:16 37.68949 26.90647 31 ft 25 kts 274°
2026-05-04 12:16 37.68962 26.90441 30 ft 23 kts 275°
2026-05-04 12:17 37.68973 26.90243 31 ft 22 kts 273°
2026-05-04 12:17 37.68998 26.90103 31 ft 8 kts 263°
2026-05-04 12:17 37.68982 26.90116 31 ft 4 kts 95°
2026-05-04 12:17 37.68982 26.90118 31 ft 0 kts 93°
2026-05-04 12:18 37.68981 26.90151 31 ft 21 kts 93°
2026-05-04 12:18 37.68946 26.90694 31 ft 102 kts 95°
2026-05-04 12:18 37.68880 26.91855 109 ft 153 kts 93°
2026-05-04 12:19 37.68789 26.93250 617 ft 172 kts 93°
2026-05-04 12:19 37.68465 26.94719 1331 ft 177 kts 129°
2026-05-04 12:19 37.67394 26.95405 2158 ft 186 kts 181°
2026-05-04 12:19 37.66087 26.94843 2782 ft 216 kts 223°
2026-05-04 12:20 37.64957 26.93558 3778 ft 223 kts 227°
2026-05-04 12:20 37.63790 26.92227 4854 ft 230 kts 227°
2026-05-04 12:20 37.62400 26.91159 5697 ft 243 kts 198°
2026-05-04 12:20 37.60714 26.91091 6011 ft 247 kts 175°
2026-05-04 12:21 37.58976 26.91329 5993 ft 253 kts 175°
2026-05-04 12:21 37.57228 26.91559 5987 ft 252 kts 175°
2026-05-04 12:21 37.55489 26.91769 6014 ft 249 kts 175°
2026-05-04 12:21 37.53802 26.91667 6042 ft 250 kts 204°
2026-05-04 12:22 37.52430 26.90296 6304 ft 268 kts 242°
2026-05-04 12:22 37.51782 26.88098 7306 ft 270 kts 266°
2026-05-04 12:22 37.51931 26.85768 8521 ft 268 kts 292°
2026-05-04 12:22 37.52949 26.83846 9682 ft 267 kts 322°
2026-05-04 12:23 37.54488 26.82513 10776 ft 275 kts 330°
2026-05-04 12:23 37.56191 26.81248 11531 ft 292 kts 332°
2026-05-04 12:23 37.57973 26.79979 12647 ft 296 kts 333°
2026-05-04 12:23 37.59825 26.78772 13694 ft 303 kts 334°
2026-05-04 12:24 37.61725 26.77558 14701 ft 310 kts 334°
2026-05-04 12:24 37.63709 26.76251 15211 ft 333 kts 333°
2026-05-04 12:24 37.65784 26.74833 15988 ft 344 kts 332°
2026-05-04 12:24 37.67894 26.73348 16927 ft 350 kts 331°
2026-05-04 12:25 37.70021 26.71818 17880 ft 354 kts 330°
2026-05-04 12:25 37.72166 26.70250 18783 ft 359 kts 330°
2026-05-04 12:25 37.74338 26.68647 19618 ft 365 kts 329°
2026-05-04 12:25 37.76543 26.67009 20412 ft 371 kts 329°
2026-05-04 12:26 37.78789 26.65334 21196 ft 378 kts 329°
2026-05-04 12:26 37.81064 26.63631 21977 ft 382 kts 329°
2026-05-04 12:26 37.83368 26.61904 22685 ft 388 kts 329°
2026-05-04 12:26 37.85705 26.60150 23377 ft 393 kts 329°
2026-05-04 12:27 37.88069 26.58375 24059 ft 398 kts 329°
2026-05-04 12:27 37.90468 26.56572 24712 ft 403 kts 329°
2026-05-04 12:27 37.92891 26.54749 25321 ft 408 kts 329°
2026-05-04 12:27 37.95344 26.52902 25889 ft 413 kts 330°
2026-05-04 12:28 37.96985 26.51665 26282 ft 416 kts 330°
2026-05-04 12:28 37.99482 26.49782 26872 ft 419 kts 330°
2026-05-04 12:28 38.01997 26.47885 27421 ft 423 kts 331°
2026-05-04 12:28 38.04543 26.45963 27912 ft 427 kts 331°
2026-05-04 12:29 38.07113 26.44023 28361 ft 432 kts 332°
2026-05-04 12:29 38.09707 26.42063 28834 ft 436 kts 332°
2026-05-04 12:29 38.12316 26.40089 29311 ft 439 kts 332°
2026-05-04 12:29 38.14948 26.38094 29764 ft 443 kts 332°
2026-05-04 12:30 38.17608 26.36077 30200 ft 446 kts 332°
2026-05-04 12:30 38.20273 26.34054 30699 ft 447 kts 332°
2026-05-04 12:30 38.22935 26.32032 31340 ft 444 kts 332°
2026-05-04 12:30 38.25570 26.30026 32019 ft 440 kts 331°
2026-05-04 12:31 38.28188 26.28034 32618 ft 437 kts 331°
2026-05-04 12:31 38.30790 26.26052 33163 ft 436 kts 330°
2026-05-04 12:31 38.33390 26.24070 33669 ft 434 kts 330°
2026-05-04 12:31 38.35972 26.22100 34166 ft 432 kts 330°
2026-05-04 12:32 38.38548 26.20132 34649 ft 431 kts 330°
2026-05-04 12:32 38.43691 26.16202 35470 ft 431 kts 329°
2026-05-04 12:32 38.46256 26.14238 35848 ft 430 kts 329°
2026-05-04 12:33 38.48818 26.12275 36277 ft 429 kts 329°
2026-05-04 12:33 38.51381 26.10310 36623 ft 430 kts 329°
2026-05-04 12:33 38.53943 26.08346 37076 ft 427 kts 329°
2026-05-04 12:33 38.56459 26.06412 37740 ft 418 kts 329°
2026-05-04 12:34 38.58946 26.04501 38066 ft 419 kts 329°
2026-05-04 12:34 38.61454 26.02573 38230 ft 423 kts 329°
2026-05-04 12:34 38.63981 26.00627 38463 ft 424 kts 329°
2026-05-04 12:34 38.66504 25.98684 38857 ft 422 kts 328°
2026-05-04 12:35 38.69014 25.96749 39219 ft 420 kts 328°
2026-05-04 12:35 38.71519 25.94816 39502 ft 421 kts 328°
2026-05-04 12:35 38.74029 25.92878 39681 ft 423 kts 328°
2026-05-04 12:35 38.76556 25.90925 39839 ft 426 kts 328°
2026-05-04 12:36 38.79099 25.88958 40091 ft 426 kts 328°
2026-05-04 12:36 38.84201 25.85005 40107 ft 437 kts 328°
2026-05-04 12:37 38.89439 25.80940 40102 ft 440 kts 328°
2026-05-04 12:37 38.94684 25.76863 40102 ft 441 kts 328°
2026-05-04 12:38 38.99925 25.72781 40102 ft 441 kts 328°
2026-05-04 12:38 39.05165 25.68694 40101 ft 441 kts 328°
2026-05-04 12:39 39.10405 25.64599 40099 ft 440 kts 328°
2026-05-04 12:39 39.15640 25.60501 40103 ft 440 kts 328°
2026-05-04 12:40 39.20876 25.56395 40102 ft 440 kts 328°
2026-05-04 12:40 39.26106 25.52287 40100 ft 440 kts 328°
2026-05-04 12:41 39.31333 25.48173 40102 ft 440 kts 328°
2026-05-04 12:41 39.36563 25.44050 40103 ft 440 kts 328°
2026-05-04 12:42 39.41797 25.39916 40101 ft 441 kts 328°
2026-05-04 12:42 39.47024 25.35780 40098 ft 441 kts 328°
2026-05-04 12:43 39.52256 25.31634 40103 ft 441 kts 328°
2026-05-04 12:43 39.57485 25.27481 40102 ft 441 kts 328°
2026-05-04 12:44 39.62715 25.23321 40103 ft 441 kts 328°
2026-05-04 12:44 39.67911 25.19181 40102 ft 441 kts 328°
2026-05-04 12:45 39.73139 25.15008 40101 ft 441 kts 328°
2026-05-04 12:45 39.78361 25.10831 40102 ft 441 kts 328°
2026-05-04 12:46 39.83584 25.06646 40101 ft 441 kts 328°
2026-05-04 12:46 39.88808 25.02454 40102 ft 441 kts 328°
2026-05-04 12:47 39.94027 24.98257 40102 ft 441 kts 328°
2026-05-04 12:47 39.99241 24.94057 40101 ft 441 kts 328°
2026-05-04 12:48 40.04460 24.89845 40094 ft 441 kts 329°
2026-05-04 12:48 40.09679 24.85625 40105 ft 442 kts 328°
2026-05-04 12:49 40.14913 24.81386 40104 ft 442 kts 329°